When you browse on this site, cookies collect data to enhance your experience and personalize the content and advertising you see.
Visit our Privacy Policy to learn more. By continuing to use the site, you agree to this use of cookies and data.
  • In Latvia
  • List of Countries
  • For 7 days
  • Water Temperature
  • Weather Map
  • Weather Widgets
  • user-avatar
    Login

    Hourly Weather Kitzbuhel

    Today, 21 October, Monday

    Time Temperature Precipitation Wind Pressure Humidity
    00:00 +12°C° 0 mm 4 mps 677 mmHg 74%
    01:00 +13°C° 0 mm 4 mps 677 mmHg 76%
    02:00 +12°C° 0 mm 4 mps 677 mmHg 76%
    03:00 +12°C° 0 mm 3 mps 677 mmHg 76%
    04:00 +12°C° 0 mm 3 mps 677 mmHg 77%
    05:00 +12°C° 0 mm 3 mps 677 mmHg 78%
    06:00 +12°C° 0 mm 3 mps 678 mmHg 79%
    07:00 +12°C° 0 mm 3 mps 679 mmHg 80%
    08:00 +13°C° 0 mm 3 mps 679 mmHg 76%
    09:00 +16°C° 0 mm 2 mps 680 mmHg 71%
    10:00 +18°C° 0 mm 2 mps 680 mmHg 67%
    11:00 +19°C° 0 mm 2 mps 681 mmHg 65%
    12:00 +19°C° 0 mm 2 mps 681 mmHg 63%
    13:00 +20°C° 0 mm 2 mps 682 mmHg 61%
    14:00 +19°C° 0 mm 2 mps 681 mmHg 67%
    15:00 +18°C° 0 mm 2 mps 681 mmHg 72%
    16:00 +17°C° 0 mm 2 mps 680 mmHg 77%
    17:00 +16°C° 0 mm 1 mps 680 mmHg 82%
    18:00 +14°C° 0 mm 1 mps 681 mmHg 87%
    19:00 +13°C° 0 mm 1 mps 681 mmHg 91%
    20:00 +13°C° 0 mm 1 mps 681 mmHg 91%
    21:00 +13°C° 0 mm 1 mps 681 mmHg 91%
    22:00 +13°C° 0 mm 1 mps 681 mmHg 91%
    23:00 +12°C° 0 mm 1 mps 681 mmHg 90%

    Tomorrow, 22 October, Tuesday

    Time Temperature Precipitation Wind Pressure Humidity
    00:00 +12°C° 0 mm 1 mps 681 mmHg 89%
    01:00 +12°C° 0 mm 1 mps 681 mmHg 89%
    02:00 +12°C° 0 mm 1 mps 681 mmHg 89%
    03:00 +10°C° 0 mm 0 mps 681 mmHg 89%
    04:00 +10°C° 0 mm 0 mps 681 mmHg 89%
    05:00 +10°C° 0 mm 0 mps 681 mmHg 88%
    06:00 +11°C° 0 mm 1 mps 681 mmHg 87%
    07:00 +10°C° 0 mm 1 mps 681 mmHg 86%
    08:00 +13°C° 0 mm 1 mps 681 mmHg 78%
    09:00 +14°C° 0 mm 0 mps 682 mmHg 71%
    10:00 +16°C° 0 mm 0 mps 682 mmHg 63%
    11:00 +17°C° 0 mm 0 mps 682 mmHg 61%
    12:00 +20°C° 0 mm 1 mps 682 mmHg 59%
    13:00 +21°C° 0 mm 1 mps 682 mmHg 57%
    14:00 +20°C° 0 mm 1 mps 682 mmHg 65%
    15:00 +19°C° 0 mm 1 mps 681 mmHg 73%
    16:00 +18°C° 0 mm 1 mps 681 mmHg 81%
    17:00 +15°C° 0 mm 1 mps 681 mmHg 83%
    18:00 +14°C° 0 mm 1 mps 681 mmHg 85%
    19:00 +13°C° 0 mm 1 mps 681 mmHg 87%
    20:00 +12°C° 0 mm 1 mps 681 mmHg 86%
    21:00 +12°C° 0 mm 1 mps 680 mmHg 86%
    22:00 +12°C° 0 mm 1 mps 680 mmHg 85%
    23:00 +12°C° 0 mm 1 mps 680 mmHg 82%

    Day after tomorrow, 23 October, Wednesday

    Time Temperature Precipitation Wind Pressure Humidity
    00:00 +10°C° 0 mm 2 mps 680 mmHg 80%
    01:00 +10°C° 0 mm 2 mps 680 mmHg 78%
    02:00 +10°C° 0 mm 2 mps 680 mmHg 75%
    03:00 +10°C° 0 mm 2 mps 679 mmHg 72%
    04:00 +9°C° 0 mm 2 mps 679 mmHg 70%
    05:00 +9°C° 0 mm 2 mps 679 mmHg 67%
    06:00 +9°C° 0 mm 2 mps 679 mmHg 64%
    07:00 +9°C° 0 mm 2 mps 678 mmHg 61%
    08:00 +13°C° 0 mm 2 mps 679 mmHg 56%
    09:00 +16°C° 0 mm 2 mps 679 mmHg 51%
    10:00 +19°C° 0 mm 1 mps 680 mmHg 46%
    11:00 +21°C° 0 mm 1 mps 680 mmHg 44%
    12:00 +21°C° 0 mm 2 mps 679 mmHg 42%
    13:00 +23°C° 0 mm 2 mps 679 mmHg 40%
    14:00 +21°C° 0 mm 2 mps 679 mmHg 47%
    15:00 +20°C° 0 mm 2 mps 678 mmHg 55%
    16:00 +19°C° 0 mm 1 mps 678 mmHg 63%
    17:00 +17°C° 0 mm 2 mps 677 mmHg 64%
    18:00 +15°C° 0 mm 2 mps 677 mmHg 66%
    19:00 +12°C° 0 mm 3 mps 677 mmHg 68%
    20:00 +12°C° 0 mm 3 mps 677 mmHg 66%
    21:00 +11°C° 0 mm 3 mps 677 mmHg 65%
    22:00 +11°C° 0 mm 3 mps 677 mmHg 63%
    23:00 +11°C° 0 mm 3 mps 676 mmHg 61%

    24 October, Thursday

    Time Temperature Precipitation Wind Pressure Humidity
    00:00 +11°C° 0 mm 3 mps 676 mmHg 59%
    01:00 +11°C° 0 mm 3 mps 676 mmHg 56%
    02:00 +11°C° 0 mm 3 mps 676 mmHg 56%
    03:00 +11°C° 0 mm 3 mps 676 mmHg 55%
    04:00 +11°C° 0 mm 3 mps 675 mmHg 54%
    05:00 +11°C° 0 mm 3 mps 675 mmHg 55%
    06:00 +11°C° 0 mm 3 mps 675 mmHg 55%
    07:00 +11°C° 0 mm 3 mps 675 mmHg 56%
    08:00 +14°C° 0 mm 2 mps 676 mmHg 54%
    09:00 +16°C° 0 mm 1 mps 677 mmHg 52%
    10:00 +20°C° 0 mm 1 mps 677 mmHg 51%
    11:00 +20°C° 0 mm 1 mps 677 mmHg 49%
    12:00 +21°C° 0 mm 1 mps 677 mmHg 48%
    13:00 +22°C° 0 mm 1 mps 678 mmHg 47%
    14:00 +21°C° 0 mm 1 mps 677 mmHg 55%
    15:00 +19°C° 0 mm 1 mps 677 mmHg 63%
    16:00 +18°C° 0 mm 1 mps 676 mmHg 71%
    17:00 +15°C° 0 mm 1 mps 676 mmHg 75%
    18:00 +13°C° 0 mm 0 mps 676 mmHg 79%
    19:00 +11°C° 0 mm 0 mps 676 mmHg 83%
    20:00 +11°C° 0 mm 0 mps 677 mmHg 85%
    21:00 +10°C° 0 mm 0 mps 677 mmHg 87%
    22:00 +10°C° 0 mm 0 mps 677 mmHg 88%
    23:00 +9°C° 0 mm 0 mps 678 mmHg 89%

    25 October, Friday

    Time Temperature Precipitation Wind Pressure Humidity
    00:00 +9°C° 0 mm 0 mps 678 mmHg 90%
    01:00 +9°C° 0 mm 0 mps 678 mmHg 91%
    02:00 +9°C° 0 mm 0 mps 678 mmHg 92%
    03:00 +8°C° 0 mm 0 mps 678 mmHg 93%
    04:00 +8°C° 0 mm 0 mps 679 mmHg 93%
    05:00 +8°C° 0 mm 0 mps 679 mmHg 94%
    06:00 +8°C° 0 mm 0 mps 679 mmHg 95%
    07:00 +8°C° 0 mm 0 mps 680 mmHg 96%
    08:00 +10°C° 0 mm 0 mps 680 mmHg 91%
    09:00 +11°C° 0 mm 0 mps 681 mmHg 87%
    10:00 +13°C° 0 mm 0 mps 681 mmHg 83%
    11:00 +14°C° 0 mm 0 mps 682 mmHg 78%
    12:00 +15°C° 0 mm 0 mps 682 mmHg 73%
    13:00 +18°C° 0 mm 1 mps 682 mmHg 68%
    14:00 +16°C° 0 mm 1 mps 681 mmHg 72%
    15:00 +16°C° 0 mm 1 mps 681 mmHg 75%
    16:00 +15°C° 0 mm 1 mps 681 mmHg 79%
    17:00 +14°C° 0 mm 1 mps 681 mmHg 83%
    18:00 +12°C° 0 mm 1 mps 681 mmHg 88%
    19:00 +11°C° 0 mm 1 mps 680 mmHg 92%
    20:00 +11°C° 0 mm 1 mps 680 mmHg 91%
    21:00 +10°C° 0 mm 1 mps 681 mmHg 91%
    22:00 +10°C° 0 mm 1 mps 681 mmHg 90%
    23:00 +9°C° 0 mm 2 mps 680 mmHg 88%

    26 October, Saturday

    Time Temperature Precipitation Wind Pressure Humidity
    00:00 +9°C° 0 mm 2 mps 680 mmHg 86%
    01:00 +9°C° 0 mm 2 mps 680 mmHg 84%
    02:00 +9°C° 0 mm 2 mps 680 mmHg 80%
    03:00 +8°C° 0 mm 2 mps 680 mmHg 76%
    04:00 +8°C° 0 mm 2 mps 680 mmHg 72%
    05:00 +8°C° 0 mm 2 mps 680 mmHg 68%
    06:00 +8°C° 0 mm 2 mps 680 mmHg 64%
    07:00 +8°C° 0 mm 2 mps 680 mmHg 59%
    08:00 +12°C° 0 mm 1 mps 680 mmHg 54%
    09:00 +15°C° 0 mm 1 mps 681 mmHg 48%
    10:00 +16°C° 0 mm 0 mps 682 mmHg 43%
    11:00 +17°C° 0 mm 0 mps 682 mmHg 42%
    12:00 +20°C° 0 mm 1 mps 682 mmHg 41%
    13:00 +21°C° 0 mm 1 mps 682 mmHg 39%
    14:00 +20°C° 0 mm 1 mps 682 mmHg 49%
    15:00 +17°C° 0 mm 0 mps 681 mmHg 59%
    16:00 +15°C° 0 mm 0 mps 681 mmHg 68%
    17:00 +14°C° 0 mm 0 mps 680 mmHg 69%
    18:00 +13°C° 0 mm 1 mps 680 mmHg 70%
    19:00 +11°C° 0 mm 1 mps 680 mmHg 71%
    20:00 +11°C° 0 mm 1 mps 680 mmHg 68%
    21:00 +11°C° 0 mm 1 mps 681 mmHg 64%
    22:00 +10°C° 0 mm 1 mps 681 mmHg 61%
    23:00 +10°C° 0 mm 1 mps 681 mmHg 59%

    27 October, Sunday

    Time Temperature Precipitation Wind Pressure Humidity
    00:00 +10°C° 0 mm 1 mps 681 mmHg 57%
    01:00 +10°C° 0 mm 1 mps 681 mmHg 55%
    02:00 +10°C° 0 mm 1 mps 681 mmHg 55%
    03:00 +10°C° 0 mm 1 mps 681 mmHg 55%
    04:00 +10°C° 0 mm 1 mps 681 mmHg 55%
    05:00 +10°C° 0 mm 1 mps 681 mmHg 55%
    06:00 +10°C° 0 mm 1 mps 681 mmHg 56%
    07:00 +10°C° 0 mm 1 mps 681 mmHg 57%
    08:00 +12°C° 0 mm 1 mps 681 mmHg 53%
    09:00 +14°C° 0 mm 0 mps 682 mmHg 50%
    10:00 +17°C° 0 mm 0 mps 683 mmHg 46%
    11:00 +17°C° 0 mm 0 mps 682 mmHg 46%
    12:00 +20°C° 0 mm 1 mps 682 mmHg 45%
    13:00 +21°C° 0 mm 1 mps 682 mmHg 44%
    14:00 +20°C° 0 mm 1 mps 682 mmHg 53%
    15:00 +18°C° 0 mm 1 mps 681 mmHg 61%
    16:00 +16°C° 0 mm 1 mps 681 mmHg 70%
    17:00 +14°C° 0 mm 1 mps 681 mmHg 74%
    18:00 +13°C° 0 mm 1 mps 681 mmHg 78%
    19:00 +11°C° 0 mm 1 mps 680 mmHg 83%
    20:00 +11°C° 0 mm 1 mps 680 mmHg 82%
    21:00 +10°C° 0 mm 1 mps 681 mmHg 82%
    22:00 +10°C° 0 mm 1 mps 681 mmHg 81%
    23:00 +10°C° 0 mm 1 mps 681 mmHg 81%
    Show more